Tracking 28126 objects as of 2-Oct-2023
HD Live streaming from Space Station
objects crossing your sky now

STARLINK-30214

Track STARLINK-30214 now!
10-day predictions
STARLINK-30214 is classified as:


NORAD ID: 57411
Int'l Code: 2023-102H
Perigee: 565.3 km
Apogee: 567.0 km
Inclination: 43.0 °
Period: 95.8 minutes
Semi major axis: 6937 km
RCS: Unknown
Launch date: July 20, 2023
Source: United States (US)
Launch site: AIR FORCE WESTERN TEST RANGE (AFWTR)
Your satellite tracking list
Your tracking list is empty




NASA's NSSDC Master Catalog

Two Line Element Set (TLE):
1 57411U 23102H   23274.76684190  .00010294  00000-0  77539-3 0  9995
2 57411  43.0006  44.0617 0001194 282.0595  78.0113 15.02565055 12367
Source of the keplerian elements: AFSPC